When you browse on this site, cookies collect data to enhance your experience and personalize the content and advertising you see.
Visit our Privacy Policy to learn more. By continuing to use the site, you agree to this use of cookies and data.
  • En España
  • Lista de países
  • Para 7 días
  • Temperatura del agua
  • Mapa Satelital
  • El tiempo en el mapa
  • Informadores
  • user-avatar
    Iniciar sesión

    Tiempo cada hora Milwaukee

    Hoy, 18 Junio, Martes

    Tiempo Temperatura Precipitaciones Viento Presión Humedad
    00:00 +12°C° 0 mm 0 mps 744 mmHg 88%
    01:00 +12°C° 0 mm 0 mps 744 mmHg 88%
    02:00 +12°C° 0 mm 0 mps 744 mmHg 89%
    03:00 +12°C° 0 mm 0 mps 744 mmHg 90%
    04:00 +13°C° 0 mm 0 mps 744 mmHg 89%
    05:00 +13°C° 0 mm 0 mps 744 mmHg 87%
    06:00 +14°C° 0 mm 0 mps 744 mmHg 86%
    07:00 +16°C° 0 mm 0 mps 744 mmHg 82%
    08:00 +17°C° 0 mm 0 mps 744 mmHg 79%
    09:00 +19°C° 0 mm 0 mps 744 mmHg 75%
    10:00 +22°C° 0 mm 1 mps 744 mmHg 72%
    11:00 +23°C° 0 mm 2 mps 743 mmHg 69%
    12:00 +24°C° 0 mm 2 mps 743 mmHg 65%
    13:00 +25°C° 0 mm 2 mps 743 mmHg 65%
    14:00 +25°C° 0 mm 3 mps 742 mmHg 65%
    15:00 +26°C° 0 mm 3 mps 741 mmHg 64%
    16:00 +25°C° 0.2 mm 2 mps 741 mmHg 69%
    17:00 +24°C° 0.2 mm 2 mps 741 mmHg 74%
    18:00 +24°C° 0.2 mm 2 mps 741 mmHg 79%
    19:00 +23°C° 0.1 mm 2 mps 741 mmHg 82%
    20:00 +21°C° 0.1 mm 2 mps 741 mmHg 84%
    21:00 +20°C° 0.1 mm 2 mps 741 mmHg 87%
    22:00 +20°C° 0 mm 1 mps 741 mmHg 87%
    23:00 +20°C° 0 mm 1 mps 741 mmHg 88%

    Mañana, 19 Junio, Miércoles

    Tiempo Temperatura Precipitaciones Viento Presión Humedad
    00:00 +19°C° 0 mm 1 mps 741 mmHg 89%
    01:00 +18°C° 0 mm 2 mps 740 mmHg 89%
    02:00 +18°C° 0 mm 3 mps 740 mmHg 89%
    03:00 +17°C° 0 mm 3 mps 740 mmHg 90%
    04:00 +15°C° 0.3 mm 4 mps 740 mmHg 91%
    05:00 +15°C° 0.3 mm 4 mps 741 mmHg 91%
    06:00 +14°C° 0.3 mm 4 mps 741 mmHg 92%
    07:00 +14°C° 0.2 mm 4 mps 741 mmHg 91%
    08:00 +14°C° 0.2 mm 4 mps 741 mmHg 90%
    09:00 +14°C° 0.2 mm 4 mps 741 mmHg 89%
    10:00 +15°C° 0 mm 4 mps 741 mmHg 85%
    11:00 +15°C° 0 mm 4 mps 741 mmHg 82%
    12:00 +17°C° 0 mm 4 mps 740 mmHg 78%
    13:00 +17°C° 0 mm 4 mps 740 mmHg 76%
    14:00 +17°C° 0 mm 4 mps 740 mmHg 73%
    15:00 +17°C° 0 mm 4 mps 739 mmHg 71%
    16:00 +17°C° 0 mm 4 mps 739 mmHg 72%
    17:00 +17°C° 0 mm 4 mps 739 mmHg 73%
    18:00 +17°C° 0 mm 4 mps 739 mmHg 74%
    19:00 +15°C° 0 mm 4 mps 739 mmHg 76%
    20:00 +14°C° 0 mm 4 mps 739 mmHg 77%
    21:00 +13°C° 0 mm 4 mps 739 mmHg 79%
    22:00 +12°C° 0 mm 4 mps 738 mmHg 82%
    23:00 +12°C° 0 mm 4 mps 738 mmHg 84%

    Pasado mañana, 20 Junio, Jueves

    Tiempo Temperatura Precipitaciones Viento Presión Humedad
    00:00 +12°C° 0 mm 4 mps 738 mmHg 86%
    01:00 +12°C° 0 mm 4 mps 738 mmHg 89%
    02:00 +12°C° 0 mm 4 mps 738 mmHg 92%
    03:00 +13°C° 0 mm 4 mps 738 mmHg 96%
    04:00 +13°C° 0 mm 4 mps 738 mmHg 93%
    05:00 +13°C° 0 mm 4 mps 738 mmHg 90%
    06:00 +14°C° 0 mm 5 mps 738 mmHg 88%
    07:00 +14°C° 0 mm 5 mps 738 mmHg 85%
    08:00 +15°C° 0 mm 5 mps 738 mmHg 82%
    09:00 +16°C° 0 mm 5 mps 738 mmHg 79%
    10:00 +16°C° 0 mm 5 mps 739 mmHg 76%
    11:00 +17°C° 0 mm 5 mps 739 mmHg 72%
    12:00 +19°C° 0 mm 5 mps 739 mmHg 68%
    13:00 +19°C° 0 mm 5 mps 739 mmHg 67%
    14:00 +20°C° 0 mm 5 mps 739 mmHg 67%
    15:00 +21°C° 0 mm 4 mps 739 mmHg 66%
    16:00 +20°C° 0 mm 4 mps 740 mmHg 68%
    17:00 +19°C° 0 mm 4 mps 740 mmHg 70%
    18:00 +19°C° 0 mm 4 mps 741 mmHg 72%
    19:00 +17°C° 0 mm 3 mps 741 mmHg 74%
    20:00 +16°C° 0 mm 3 mps 742 mmHg 76%
    21:00 +15°C° 0 mm 2 mps 742 mmHg 77%
    22:00 +14°C° 0 mm 2 mps 742 mmHg 78%
    23:00 +14°C° 0 mm 1 mps 743 mmHg 79%

    21 Junio, Viernes

    Tiempo Temperatura Precipitaciones Viento Presión Humedad
    00:00 +14°C° 0 mm 1 mps 743 mmHg 80%
    01:00 +14°C° 0 mm 1 mps 743 mmHg 80%
    02:00 +14°C° 0 mm 1 mps 744 mmHg 80%
    03:00 +14°C° 0 mm 1 mps 744 mmHg 81%
    04:00 +14°C° 0 mm 1 mps 744 mmHg 78%
    05:00 +15°C° 0 mm 1 mps 745 mmHg 76%
    06:00 +16°C° 0 mm 1 mps 745 mmHg 74%
    07:00 +18°C° 0 mm 1 mps 745 mmHg 69%
    08:00 +18°C° 0 mm 2 mps 746 mmHg 64%
    09:00 +20°C° 0 mm 3 mps 746 mmHg 59%
    10:00 +20°C° 0 mm 3 mps 746 mmHg 57%
    11:00 +21°C° 0 mm 4 mps 746 mmHg 55%
    12:00 +21°C° 0 mm 4 mps 746 mmHg 53%
    13:00 +21°C° 0 mm 4 mps 746 mmHg 54%
    14:00 +21°C° 0 mm 3 mps 746 mmHg 56%
    15:00 +21°C° 0 mm 3 mps 745 mmHg 58%
    16:00 +20°C° 0 mm 3 mps 745 mmHg 62%
    17:00 +19°C° 0 mm 3 mps 745 mmHg 66%
    18:00 +18°C° 0 mm 3 mps 746 mmHg 70%
    19:00 +18°C° 0 mm 3 mps 746 mmHg 71%
    20:00 +17°C° 0 mm 4 mps 746 mmHg 72%
    21:00 +15°C° 0 mm 4 mps 746 mmHg 73%
    22:00 +15°C° 0 mm 4 mps 746 mmHg 74%
    23:00 +15°C° 0 mm 5 mps 745 mmHg 75%

    22 Junio, Sábado

    Tiempo Temperatura Precipitaciones Viento Presión Humedad
    00:00 +15°C° 0 mm 5 mps 745 mmHg 77%
    01:00 +15°C° 0 mm 5 mps 745 mmHg 77%
    02:00 +15°C° 0 mm 5 mps 745 mmHg 77%
    03:00 +15°C° 0 mm 5 mps 745 mmHg 78%
    04:00 +15°C° 0 mm 5 mps 745 mmHg 79%
    05:00 +15°C° 0 mm 6 mps 745 mmHg 81%
    06:00 +16°C° 0 mm 6 mps 745 mmHg 82%
    07:00 +16°C° 0.4 mm 6 mps 744 mmHg 85%
    08:00 +17°C° 0.4 mm 5 mps 744 mmHg 87%
    09:00 +17°C° 0.4 mm 5 mps 744 mmHg 89%
    10:00 +19°C° 0.3 mm 6 mps 744 mmHg 88%
    11:00 +20°C° 0.3 mm 6 mps 744 mmHg 87%
    12:00 +21°C° 0.3 mm 7 mps 744 mmHg 86%
    13:00 +21°C° 0.5 mm 6 mps 743 mmHg 86%
    14:00 +21°C° 0.5 mm 6 mps 743 mmHg 87%
    15:00 +20°C° 0.5 mm 6 mps 743 mmHg 87%
    16:00 +20°C° 1.9 mm 6 mps 742 mmHg 89%
    17:00 +20°C° 1.9 mm 6 mps 742 mmHg 91%
    18:00 +20°C° 1.9 mm 7 mps 742 mmHg 93%
    19:00 +20°C° 1.1 mm 7 mps 742 mmHg 94%
    20:00 +20°C° 1.1 mm 7 mps 742 mmHg 95%
    21:00 +20°C° 1.1 mm 7 mps 742 mmHg 96%
    22:00 +20°C° 3.7 mm 6 mps 741 mmHg 97%
    23:00 +20°C° 3.7 mm 5 mps 741 mmHg 97%

    23 Junio, Domingo

    Tiempo Temperatura Precipitaciones Viento Presión Humedad
    00:00 +20°C° 3.7 mm 4 mps 741 mmHg 97%
    01:00 +20°C° 4.6 mm 5 mps 741 mmHg 98%
    02:00 +20°C° 4.6 mm 6 mps 741 mmHg 98%
    03:00 +20°C° 4.6 mm 7 mps 741 mmHg 98%
    04:00 +20°C° 3.7 mm 7 mps 741 mmHg 98%
    05:00 +20°C° 3.7 mm 7 mps 741 mmHg 97%
    06:00 +20°C° 3.7 mm 7 mps 741 mmHg 96%
    07:00 +21°C° 0.2 mm 7 mps 741 mmHg 93%
    08:00 +22°C° 0.2 mm 8 mps 740 mmHg 90%
    09:00 +24°C° 0.2 mm 8 mps 740 mmHg 87%
    10:00 +26°C° 0 mm 8 mps 740 mmHg 85%
    11:00 +27°C° 0 mm 8 mps 739 mmHg 84%
    12:00 +28°C° 0 mm 8 mps 739 mmHg 82%
    13:00 +29°C° 0.2 mm 7 mps 739 mmHg 79%
    14:00 +29°C° 0.2 mm 7 mps 738 mmHg 77%
    15:00 +30°C° 0.2 mm 7 mps 738 mmHg 74%
    16:00 +29°C° 0 mm 6 mps 738 mmHg 76%
    17:00 +29°C° 0 mm 6 mps 738 mmHg 79%
    18:00 +28°C° 0 mm 6 mps 738 mmHg 82%
    19:00 +27°C° 0 mm 6 mps 738 mmHg 83%
    20:00 +26°C° 0 mm 6 mps 738 mmHg 85%
    21:00 +26°C° 0 mm 5 mps 738 mmHg 87%
    22:00 +25°C° 0.4 mm 5 mps 738 mmHg 89%
    23:00 +23°C° 0.4 mm 4 mps 737 mmHg 90%
    Mostrar más